Date,TemperatureHighF,TemperatureAvgF,TemperatureLowF,DewpointHighF,DewpointAvgF,DewpointLowF,HumidityHigh,HumidityAvg,HumidityLow,PressureMaxIn,PressureMinIn,WindSpeedMaxMPH,WindSpeedAvgMPH,GustSpeedMaxMPH,PrecipitationSumIn
2012-12-1,54.3,44.1,37.7,43.3,39.0,35.0,97,83,62,29.82,29.60,11,1,14,0.00
2012-12-2,51.0,41.1,35.7,39.2,36.0,31.8,96,83,49,29.97,29.37,23,4,25,0.11
2012-12-3,47.4,37.8,33.1,40.0,34.6,31.4,95,89,73,30.18,29.97,13,3,16,0.00
2012-12-5,48.6,41.8,34.2,29.0,26.3,23.1,78,55,39,30.36,30.16,11,2,14,0.00
2012-12-6,39.8,34.9,30.2,35.2,31.1,27.3,94,86,72,30.33,30.17,18,2,19,0.01
2012-12-7,39.8,35.8,33.3,36.8,31.5,25.7,94,84,64,30.26,30.01,19,4,21,0.08
2012-12-8,38.3,33.3,30.7,33.0,29.8,27.6,94,87,79,30.57,30.25,17,4,19,0.00
2012-12-9,34.2,30.7,29.2,30.8,28.2,27.1,94,90,76,30.62,30.55,4,0,5,0.00
2012-12-10,39.8,33.0,28.1,34.3,30.1,26.2,96,89,79,30.48,30.22,9,1,11,0.01
2012-12-11,34.4,30.8,27.7,33.4,29.7,26.7,96,96,93,30.22,29.77,6,0,7,0.00
2012-12-12,32.0,31.7,31.4,31.2,30.7,30.4,97,96,96,29.83,29.81,1,0,1,0.00
2012-12-13,35.0,33.8,32.9,32.3,31.7,30.8,96,92,86,30.24,30.06,6,1,6,0.00
2012-12-14,36.1,33.0,28.2,32.9,31.1,26.3,97,93,84,30.16,29.99,4,0,5,0.04
2012-12-15,31.2,29.9,27.3,29.9,28.5,25.5,96,94,92,30.16,29.81,7,0,7,0.00
2012-12-16,33.1,29.3,24.9,31.0,27.1,22.9,95,91,83,29.95,29.36,19,2,28,0.01
2012-12-17,46.9,36.6,30.4,35.5,30.4,25.4,99,80,45,30.03,29.28,23,2,28,0.15
2012-12-18,36.4,28.7,21.4,27.6,23.3,17.4,88,80,68,30.23,30.02,9,1,10,0.07
2012-12-19,29.2,26.8,22.4,26.6,23.5,19.4,90,87,84,30.24,30.01,3,0,5,0.00
2012-12-20,39.5,33.0,28.9,34.4,29.6,26.3,95,87,79,30.06,29.83,4,0,7,0.10
2012-12-21,33.9,31.3,28.1,31.3,28.2,25.0,90,88,86,30.13,30.05,4,0,5,0.00
2012-12-22,36.5,34.6,33.0,33.8,32.5,31.2,93,92,89,30.00,29.77,3,0,4,0.07
2012-12-23,37.4,34.3,33.1,33.8,32.2,31.3,99,92,84,30.06,29.87,6,0,6,0.06
2012-12-24,37.8,32.7,30.4,36.2,31.0,28.6,94,93,93,30.24,29.94,4,0,5,0.01
2012-12-28,34.4,32.3,31.5,28.2,26.8,25.4,84,80,77,30.48,30.42,6,0,7,0.04
2012-12-29,31.7,31.6,31.4,27.3,26.8,25.9,84,82,79,30.46,30.45,3,0,4,0.00